Погода Рудная Пристань

Погода Рудная Пристань : погода сейчас, прогноз погоды и архив. Всё, что Вы хотите узнать о погоде Рудная Пристань!

Хотите узнать прогноз погоды Рудная Пристань? Тогда Вам сюда: Погода Рудная Пристань

Поиск расширенной информации на нашем сайте:

Другие новости

Новости СМИ2

Главная страница сайта

Новости сайта

03.07.2017

Напоминаем, что на нашем специализированном сайте Метеоцентр.Азия вы можете получить высокодетализированные автоматические прогнозы погоды по пунктам России, СНГ и мира в авиационном формате (включающие направление и скорость ветра, видимость, явления погоды, количество и форму облачности, нижнюю и верхнюю границу облачности).

Рекомендуем: Нетбук в СВАО ремонт компьютеров компьютерная помощь одинцово VIP сервис

Погода Рудная Пристань - сегодня

Время (UTC), дата Ветер
(°,м/с) 
Видим.   Явления Облачность Т
(°С)
Тd
(°С)
f(%) Тe
(°С)
Pmin
(гПа)
dP
(гПа)
Po
(мм)
O2
(г/м3)
Тmin Tmax R s Состояние
почвы
00 17.02.18 260 (З) 6-14{17}  20000 м    10/6 600 м средняя 
[Sc|As trans]
-8.3 -19.7 39 -13  1005.3  1.5  751  313  -8.3         
18 17.02.18 260 (З) 5-12{17}  20000 м    ясно 
-12.4 -25.1 34 -18  1018.6  761  323           
00 18.02.18 260 (З) 4-10{14}  20000 м    ясно 
-11.1 -25.7 29 -15  1021.2  763  322  -12.7         
03 18.02.18 250 (З) 3{12}  20000 м    ясно 
-6.9 -23.9 24 -10  1020.3  -0.9  762  317           
06 18.02.18 270 (З) 5-11{11}  20000 м    ясно 
-5.9 -23 25 -10  1018.8  -1.4  761  315           
12 18.02.18 220 (ЮЗ) 20000 м    ясно 
-11 -24.1 33 -14  1020.9  0.9  762  322           
15 18.02.18 240 (ЮЗ) 20000 м    ясно 
-10.8 -25.2 29 -13  1019.8  -1.1  761  321           
18 18.02.18 тихо ()   20000 м    ясно 
-14.4 -24 44 -14  1019.6  -0.3  761  325           
00 19.02.18 250 (З) 20000 м    ясно 
-14 -21.1 55 -14  1019  -0.5  761  325  -19.2         
03 19.02.18 270 (З) 5{12}  20000 м    3/0 средняя, верхняя 
[Ac lent|Ci fib]
-5.3 -22.3 25 -9  1016.5  -2.4  759  313           
06 19.02.18 260 (З) 4{13}  20000 м    3/0 верхняя 
[Ci fib]
-4.5 -21.6 25 -8  1014.9  -1.5  758  312           
12 19.02.18 280 (З) 20000 м    ясно 
-9 -23.2 31 -9  1017  0.8  759  318           
15 19.02.18 тихо ()   20000 м    ясно 
-10.7 -22.5 37 -11  1016.8  -0.2  759  320           
18 19.02.18 260 (З) 20000 м    ясно 
-14 -20.9 56 -16  1016.3  -0.6  759  324           
00 20.02.18 250 (З) 20000 м    1/1 600 м 
[Cu hum]
-9.4 -21 38 -12  1015.3  -0.6  758  318           
09 20.02.18 270 (З) 3{14}  20000 м    1/1 600 м 
[Sc diur, vesp]
-9.3 -26.7 23 -12  1015.7  2.3  758  318    -5.3       
12 20.02.18 тихо ()   20000 м    ясно 
-11.8 -25.8 30 -12  1016.8  1.1  759  321           
15 20.02.18 тихо ()   20000 м    ясно 
-12.6 -23.8 39 -13  1017.1  0.3  759  322           
18 20.02.18 тихо ()   20000 м    ясно 
-13.3 -23 44 -13  1017.2  0.1  760  323           
00 21.02.18 240 (ЮЗ) 20000 м    ясно 
-12.9 -23.1 42 -13  1018.4  0.9  760  323  -16.4         
03 21.02.18 220 (ЮЗ) 20000 м    ясно 
-7.1 -25.6 21 -10  1017.1  -1.2  760  316           
06 21.02.18 270 (З) 20000 м    1/1 1000 м 
[Cu hum]
-6.2 -26.4 18 -10  1016  -1  759  314           
12 21.02.18 270 (З) 20000 м    ясно 
-11.8 -24.9 33 -12  1019.5  1.6  761  322           
15 21.02.18 270 (З) 20000 м    ясно 
-17.7 -23.6 60 -20  1019.2  -0.3  761  330           
18 21.02.18 260 (З) 20000 м    ясно 
-18.8 -23.9 64 -19  1018.5  -0.8  760  331           
Время (UTC), дата Ветер
(°,м/с) 
Видим.   Явления Облачность Т
(°С)
Тd
(°С)
f(%) Тe
(°С)
Pmin
(гПа)
dP
(гПа)
Po
(мм)
O2
(г/м3)
Тmin Tmax R s Состояние
почвы

Для получения пояснительной информации подведите курсор к названию столбца.

ПОГОДА Рудная Пристань - архив

Всё, что Вы хотите узнать о погоде Рудная Пристань - удобно и подробно!

Выберите нужную дату (начиная с 1 января 2015* года) и нажмите кнопку "Найти".
Будут отображены архивные сводки погоды по пункту Рудная Пристань, начиная с указанной даты.


Отображать данные в формате CSV (для использования в таблицах Excel)


Внимание! Наш архив погоды предназначен исключительно для личного некоммерческого использования в познавательных целях. Если Вам необходимы официальные справки о состоянии погоды (для производственных, юридических, коммерческих и т.п. целей), обращайтесь в органы Росгидромета.

*Примечание: данная дата относится к архиву по метеостанциям СССР (Россия, СНГ, Балтия).
Архив по метеостанциям Зарубежной Европы и Азии (кроме Китая) хранится 10 дней, по другим регионам земного шара (Китай, Африка, Америка, Австралия, Океания) - 1 день.

Рудная Пристань - район местоположения метеостанции


Название, широта, долгота, высота метеостанции:
Рудная Пристань 44.4°ш. 135.9°д. 34 м над ур. моря [Российская Федерация]

Дополнительная информация

В oтличие oт бoльшинства пoгoдных сайтoв мы публикуем пoдрoбную метеoинфoрмацию в детальнoм прoфессиoнальнoм фoрмате.

Характеристики температуры и влажнoсти вoздуха измеряются на высoте 2 м в тени вдали oт зданий и деревьев.
Скoрoсть ветра измеряется на высoте 10 м (на урoвне рoста челoвека скoрoсть ветра ниже в 1.5-2 раза). Если метеoстанция нахoдится в гoрoде или в лесу, тo скoрoсть ветра занижена на 2-4 м/с пo сравнению с oткрытым местoм. Скoрoсть ветра над акватoриями крупных рек и oзёр, а также на вершинах хoлмoв на 2-5 м/с выше, чем в oбычных услoвиях.
Атмoсфернoе давление в разных тoчках местнoсти мoжет значительнo oтличаться oт давления на метеoстанции, в зависимoсти oт услoвий рельефа (при пoдъёме на 10 м давление пoнижается примернo на 1 мм рт.ст.).